{"data":{"norad_id":43251,"epoch":"2026-09-20T05:03:43.322112Z","epoch_age_seconds":40504,"freshness":"FRESH","line1":"1 43251U 18030C   26263.21091808  .00000098  00000+0  27915-4 0  9999","line2":"2 43251  86.3915 250.6701 0002259  87.9043 272.2412 14.34217949443756","mean_motion":14.34217949,"eccentricity":0.0002259,"inclination_deg":86.3915,"raan_deg":250.6701,"arg_perigee_deg":87.9043,"mean_anomaly_deg":272.2412,"bstar":2.7915e-5,"rev_number":44375,"period_min":100.40315009333,"perigee_km":776.04999642513,"apogee_km":779.28298844301,"semimajor_km":7155.8034924341,"source":"CELESTRAK","updated_at":"2026-09-20T09:00:36.328833Z"}}